Location: Mt. Bigelow
(32.4165°N, 110.7345°W)
Time: 13:10:18
(UTC-07:00)

Amateur Radio Satellites - All Passes

Search period start: 22 November 2017 12:40
Search period end: 23 November 2017 12:40
Location: Mt. Bigelow, 32.4165°N, 110.7345°W

Satellite Date Start Highest point End Downlink Frequencies (MHz)
Time Altitude Azimuth
BUGSAT 1 22 Nov 12:44:53 12:49:05 87° 77° (ENE) 12:53:16 437.445
QB50P2 22 Nov 12:49:04 12:50:46 12° 267° (W) 12:52:27 145.880/145.840
Gurwin Techsat 1B 22 Nov 12:50:49 12:55:34 35° 71° (ENE) 13:00:20 435.225
VELOX 1 22 Nov 12:51:18 12:55:39 53° 100° (E) 12:59:58 145.980
50 SAT 22 Nov 13:10:07 13:11:53 14° 95° (E) 13:13:39 437.505
FALCONSAT 3 22 Nov 13:24:10 13:27:51 85° 198° (SSW) 13:31:33 435.103
DX 1 22 Nov 13:32:31 13:36:24 31° 98° (E) 13:40:14 434.975-435.025
BEESAT 2 22 Nov 13:36:04 13:39:17 24° 249° (WSW) 13:42:28 435.950
SPROUT 22 Nov 13:38:18 13:41:37 23° 289° (WNW) 13:44:56 437.525
AO-85 22 Nov 13:40:28 13:45:18 73° 244° (WSW) 13:50:26 145.980
JUGNU 22 Nov 13:47:30 13:51:13 17° 168° (SSE) 13:54:55 437.505
M-CUBED/EXP-1 PRIME 22 Nov 13:47:49 13:50:59 33° 68° (ENE) 13:54:22 437.505
Oscar 19 22 Nov 13:53:32 13:58:12 36° 262° (W) 14:02:52 437.125/150
AO-7 22 Nov 13:59:47 14:06:54 33° 63° (ENE) 14:14:02 .
NO-84 22 Nov 14:07:40 14:11:03 64° 128° (SE) 14:14:45 435.350 FM
UKube-1 22 Nov 14:11:09 14:15:22 54° 100° (E) 14:19:35 .
ITAMSAT 1 22 Nov 14:11:52 14:14:53 16° 65° (ENE) 14:17:55 435.822/435.867
O/OREOS (USA 219) 22 Nov 14:17:57 14:21:05 18° 298° (WNW) 14:24:14 437.305
VELOX 1 22 Nov 14:30:15 14:31:33 11° 294° (WNW) 14:32:51 145.980
Gurwin Techsat 1B 22 Nov 14:31:23 14:35:30 23° 264° (W) 14:39:38 435.225
50 SAT 22 Nov 14:41:35 14:43:52 18° 288° (WNW) 14:46:07 437.505
FALCONSAT 3 22 Nov 15:03:50 15:06:41 21° 210° (SSW) 15:09:30 435.103
DX 1 22 Nov 15:09:20 15:12:17 18° 291° (WNW) 15:15:14 434.975-435.025
M-CUBED/EXP-1 PRIME 22 Nov 15:24:49 15:25:34 11° 264° (W) 15:26:20 437.505
JUGNU 22 Nov 15:35:04 15:39:37 23° 178° (S) 15:44:08 437.505
SRMSAT 22 Nov 15:36:48 15:38:21 11° 162° (SSE) 15:39:56 437.500
BEESAT 22 Nov 15:40:46 15:45:30 69° 102° (ESE) 15:50:12 436.000
YUBILEINY 22 Nov 15:42:08 15:48:56 24° 72° (ENE) 15:55:38 435.215
NO-84 22 Nov 15:46:54 15:48:47 13° 326° (NW) 15:50:42 435.350 FM
ITAMSAT 1 22 Nov 15:48:47 15:53:51 52° 259° (W) 15:58:57 435.822/435.867
MOZHAYETS 4 22 Nov 15:49:20 15:53:51 65° 284° (WNW) 15:58:22
DOVE 4 22 Nov 15:49:27 15:53:19 23° 69° (ENE) 15:57:19 437.250
UKube-1 22 Nov 15:50:08 15:50:51 10° 294° (WNW) 15:51:33 .
AO-7 22 Nov 15:51:29 15:59:19 47° 258° (WSW) 16:07:13 .
ITUPSAT 1 22 Nov 15:51:30 15:56:16 88° 99° (E) 16:01:00 437.325
CUBESAT XI-V 22 Nov 16:05:09 16:09:29 36° 98° (E) 16:13:47 437.345
XW-2C 22 Nov 16:51:25 16:53:20 14° 70° (ENE) 16:55:14 145.795 - 145.815
LilacSat-2 22 Nov 16:54:53 16:57:19 17° 71° (ENE) 16:59:45 437.200
XW-2F 22 Nov 17:00:05 17:02:26 16° 71° (ENE) 17:04:48 145.980 - 146.000
SRMSAT 22 Nov 17:22:37 17:26:51 20° 171° (S) 17:31:05 437.500
JUGNU 22 Nov 17:23:46 17:28:01 21° 188° (S) 17:32:15 437.505
KAITUO 1B 22 Nov 17:24:18 17:27:21 25° 73° (ENE) 17:30:25 145.475/437.950
DOVE 4 22 Nov 17:26:14 17:30:42 34° 264° (W) 17:35:22 437.250
RS-15 22 Nov 17:26:44 17:37:47 42° 107° (ESE) 17:48:53 29.354- 29.394
KKS-1 22 Nov 17:29:29 17:33:55 67° 101° (ESE) 17:38:18 437.445
CUTE-I 22 Nov 17:32:21 17:37:26 46° 72° (ENE) 17:42:32 437.470
YUBILEINY 22 Nov 17:37:32 17:46:12 62° 269° (W) 17:54:47 435.215
XW-2D 22 Nov 17:42:49 17:46:31 76° 77° (ENE) 17:50:15 145.860 - 145.880
CUBESAT XI-V 22 Nov 17:43:25 17:46:30 18° 291° (WNW) 17:49:36 437.345
STARS 22 Nov 17:49:11 17:53:17 40° 99° (E) 17:57:21 437.465
XW-2B 22 Nov 17:57:44 18:01:25 69° 259° (W) 18:05:08 145.730 - 145.750
SEEDS 22 Nov 17:58:56 18:00:40 12° 68° (ENE) 18:02:24 437.485
HO-68 22 Nov 18:00:16 18:06:52 41° 68° (ENE) 18:13:31 435.675
NUDT-PHONESAT 22 Nov 18:05:21 18:08:57 83° 259° (W) 18:12:35 437.300
XW-2C 22 Nov 18:23:59 18:27:12 28° 263° (W) 18:30:26 145.795 - 145.815
LilacSat-2 22 Nov 18:28:22 18:31:22 23° 264° (W) 18:34:23 437.200
XW-2F 22 Nov 18:33:21 18:36:19 23° 264° (W) 18:39:18 145.980 - 146.000
CUBEBUG 2 22 Nov 18:42:29 18:46:51 44° 75° (ENE) 18:51:06 437.445
KAITUO 1B 22 Nov 18:59:19 19:01:18 14° 266° (W) 19:03:16 145.475/437.950
XW-2A 22 Nov 19:01:24 19:04:18 29° 74° (ENE) 19:07:12 145.665 - 145.685
CUTE 1.7 + AOD 2 22 Nov 19:04:48 19:08:51 52° 260° (W) 19:12:57 437.475
nSIGHT-1 22 Nov 19:06:26 19:09:13 28° 130° (SE) 19:12:00 .
SRMSAT 22 Nov 19:10:48 19:15:25 24° 181° (S) 19:20:04 437.500
CUTE-I 22 Nov 19:14:08 19:17:37 18° 266° (W) 19:21:07 437.470
JUGNU 22 Nov 19:14:16 19:16:21 12° 197° (SSW) 19:18:26 437.505
STRAND 1 22 Nov 19:17:47 19:22:28 36° 98° (E) 19:27:07 437.568
ZACube-1 22 Nov 19:22:31 19:26:25 33° 73° (ENE) 19:30:14 437.345
FO-29 22 Nov 19:24:32 19:28:09 14° 88° (E) 19:31:38 435.910
STARS 22 Nov 19:26:55 19:29:13 14° 293° (WNW) 19:31:31 437.465
SEEDS 22 Nov 19:32:00 19:35:55 41° 261° (W) 19:39:52 437.485
AAUSAT CUBESAT 2 22 Nov 19:33:09 19:37:14 77° 76° (ENE) 19:41:21 437.432
UWE-3 22 Nov 19:35:33 19:40:02 79° 258° (WSW) 19:44:23 435.000/436.395/437.385
RS-15 22 Nov 19:38:03 19:49:55 53° 305° (NW) 20:01:52 29.354- 29.394
HO-68 22 Nov 19:48:24 19:54:34 31° 262° (W) 20:00:49 435.675
ISS 22 Nov 19:55:36 19:58:51 87° 324° (NW) 20:02:07 437.550
AO-73 22 Nov 20:12:00 20:16:16 66° 259° (W) 20:20:28 145.935
CUBEBUG 2 22 Nov 20:21:24 20:23:33 13° 266° (W) 20:25:42 437.445
Oscar 11 22 Nov 20:26:20 20:30:35 69° 259° (WSW) 20:34:52 .
Max Valier Satellite 22 Nov 20:33:06 20:34:50 13° 70° (ENE) 20:36:32 145.860
nSIGHT-1 22 Nov 20:42:59 20:45:26 20° 324° (NW) 20:47:54 .
SO-50 22 Nov 20:54:09 20:58:24 48° 114° (ESE) 21:02:42 436.795
STRAND 1 22 Nov 20:57:37 21:01:20 21° 292° (WNW) 21:05:03 437.568
SRMSAT 22 Nov 21:00:02 21:04:00 18° 191° (S) 21:07:58 437.500
ZACube-1 22 Nov 21:00:08 21:02:43 15° 266° (W) 21:05:15 437.345
FO-29 22 Nov 21:06:11 21:14:00 87° 284° (WNW) 21:21:09 435.910
UNISAT 6 22 Nov 21:20:55 21:24:03 20° 96° (E) 21:27:10 437.425
DELFI C3 22 Nov 21:21:54 21:25:50 81° 258° (WSW) 21:29:48 145.870
TIGRISAT 22 Nov 21:24:46 21:27:53 20° 96° (E) 21:30:59 435.000
ISS 22 Nov 21:35:34 21:35:44 10° 331° (NNW) 21:35:54 437.550
PRISM 22 Nov 21:47:48 21:49:14 12° 93° (E) 21:50:41 437.425
ESTCUBE 1 22 Nov 21:58:20 21:59:44 11° 66° (ENE) 22:01:07 437.505/2401.250
EO-88 22 Nov 21:58:41 22:02:12 52° 260° (W) 22:05:44 145.990 - 145.960
RS-15 22 Nov 21:59:29 22:06:11 16° 333° (NNW) 22:12:52 29.354- 29.394
Max Valier Satellite 22 Nov 22:05:10 22:08:19 28° 262° (W) 22:11:30 145.860
LO-87 22 Nov 22:17:42 22:20:33 22° 72° (ENE) 22:23:24 145.935 - 145.965
NO-84 22 Nov 22:20:56 22:25:07 56° 47° (NE) 22:29:15 435.350 FM
SO-50 22 Nov 22:36:29 22:39:06 15° 310° (NW) 22:41:44 436.795
AIST 2D 22 Nov 22:47:57 22:50:21 17° 95° (E) 22:52:45 435.315
PCSat 22 Nov 22:50:59 22:55:05 22° 106° (ESE) 22:59:11 145.827
O/OREOS (USA 219) 22 Nov 22:52:05 22:56:07 31° 66° (ENE) 23:00:05 437.305
FO-29 22 Nov 22:53:46 22:57:45 15° 301° (WNW) 23:01:38 435.910
UNISAT 6 22 Nov 22:57:12 23:00:41 25° 289° (WNW) 23:04:09 437.425
TIGRISAT 22 Nov 23:01:01 23:04:29 25° 289° (WNW) 23:07:57 435.000
PRISM 22 Nov 23:20:44 23:24:38 41° 286° (WNW) 23:28:30 437.425
ESTCUBE 1 22 Nov 23:31:39 23:36:00 53° 260° (W) 23:40:23 437.505/2401.250
VELOX 1 22 Nov 23:44:08 23:47:49 26° 71° (ENE) 23:51:31 145.980
DUCHIFAT 1 22 Nov 23:46:58 23:50:18 23° 97° (E) 23:53:37 145.980
LO-87 22 Nov 23:51:40 23:53:52 15° 265° (W) 23:56:03 145.935 - 145.965
EO-79 22 Nov 23:56:16 00:00:13 41° 99° (E) 00:04:09 145.935-145.965
NANOSAT C BR1 22 Nov 23:58:13 00:02:06 38° 99° (E) 00:05:58 145.865
NO-84 22 Nov 23:59:54 00:02:03 14° 240° (WSW) 00:04:09 435.350 FM
POLYITAN 1 23 Nov 00:11:59 00:16:08 68° 101° (ESE) 00:20:16 437.675
AIST 2D 23 Nov 00:20:50 00:23:23 19° 288° (WNW) 00:25:56 435.315
RS-15 23 Nov 00:24:03 00:26:48 11° 12° (NNE) 00:29:31 29.354- 29.394
DX 1 23 Nov 00:24:31 00:27:07 16° 68° (ENE) 00:29:44 434.975-435.025
SPROUT 23 Nov 00:25:39 00:29:50 56° 259° (W) 00:34:03 437.525
O/OREOS (USA 219) 23 Nov 00:32:09 00:35:13 18° 260° (W) 00:38:16 437.305
BUGSAT 1 23 Nov 00:32:18 00:34:52 16° 95° (E) 00:37:25 437.445
PCSat 23 Nov 00:33:09 00:38:10 38° 300° (WNW) 00:43:13 145.827
QB50P2 23 Nov 00:35:33 00:39:37 52° 285° (WNW) 00:43:40 145.880/145.840
UKube-1 23 Nov 01:01:17 01:04:48 25° 71° (ENE) 01:08:20 .
50 SAT 23 Nov 01:02:52 01:05:56 45° 76° (ENE) 01:09:02 437.505
Gurwin Techsat 1B 23 Nov 01:12:17 01:16:07 20° 95° (E) 01:19:56 435.225
VELOX 1 23 Nov 01:20:48 01:24:09 21° 264° (W) 01:27:32 145.980
DUCHIFAT 1 23 Nov 01:22:39 01:25:47 21° 290° (WNW) 01:28:54 145.980
EO-79 23 Nov 01:33:49 01:35:33 12° 292° (WNW) 01:37:17 145.935-145.965
NANOSAT C BR1 23 Nov 01:35:24 01:37:26 13° 292° (WNW) 01:39:26 145.865
BEESAT 2 23 Nov 01:47:25 01:48:16 11° 107° (ESE) 01:49:06 435.950
DX 1 23 Nov 01:58:58 02:02:57 36° 261° (W) 02:06:59 434.975-435.025
BEESAT 3 23 Nov 02:04:58 02:08:55 85° 115° (ESE) 02:12:55 437.485
BUGSAT 1 23 Nov 02:06:49 02:10:11 27° 288° (WNW) 02:13:33 437.445
Oscar 19 23 Nov 02:09:08 02:14:16 71° 285° (WNW) 02:19:25 437.125/150
AO-7 23 Nov 02:10:01 02:12:22 11° 92° (E) 02:14:44 .
ISS 23 Nov 02:28:08 02:29:52 14° 32° (NNE) 02:31:36 437.550
RS-15 23 Nov 02:34:36 02:44:54 33° 46° (NE) 02:54:40 29.354- 29.394
UKube-1 23 Nov 02:37:26 02:40:43 21° 264° (W) 02:44:00 .
BEESAT 23 Nov 02:42:23 02:46:56 46° 73° (ENE) 02:51:28 436.000
MOZHAYETS 4 23 Nov 02:46:09 02:50:39 67° 76° (ENE) 02:55:11
Gurwin Techsat 1B 23 Nov 02:51:13 02:56:08 40° 289° (WNW) 03:01:02 435.225
ITUPSAT 1 23 Nov 02:53:21 02:58:03 60° 75° (ENE) 03:02:44 437.325
M-CUBED/EXP-1 PRIME 23 Nov 03:03:16 03:07:50 62° 105° (ESE) 03:12:24 437.505
CUBESAT XI-V 23 Nov 03:04:27 03:07:53 21° 70° (ENE) 03:11:19 437.345
nSIGHT-1 23 Nov 03:12:32 03:15:35 43° 41° (NE) 03:18:37 .
BEESAT 2 23 Nov 03:21:39 03:25:29 46° 301° (WNW) 03:29:23 435.950
AO-85 23 Nov 03:51:03 03:54:51 66° 299° (WNW) 03:58:47 145.980
AO-7 23 Nov 03:57:39 04:06:02 80° 107° (ESE) 04:14:24 .
ISS 23 Nov 04:03:24 04:06:34 54° 227° (SW) 04:09:44 437.550
ITAMSAT 1 23 Nov 04:06:09 04:11:22 81° 103° (ESE) 04:16:32 435.822/435.867
BEESAT 23 Nov 04:22:25 04:24:51 14° 266° (W) 04:27:17 436.000
KKS-1 23 Nov 04:22:53 04:26:54 34° 72° (ENE) 04:30:57 437.445
ITUPSAT 1 23 Nov 04:35:24 04:36:10 10° 267° (W) 04:36:55 437.325
YUBILEINY 23 Nov 04:37:05 04:44:27 32° 85° (E) 04:51:51 435.215
M-CUBED/EXP-1 PRIME 23 Nov 04:39:55 04:41:38 12° 298° (WNW) 04:43:23 437.505
CUBESAT XI-V 23 Nov 04:41:05 04:45:01 28° 263° (W) 04:49:00 437.345
STARS 23 Nov 04:41:41 04:44:57 21° 69° (ENE) 04:48:15 437.465
RS-15 23 Nov 04:46:38 04:58:09 68° 248° (WSW) 05:09:02 29.354- 29.394
nSIGHT-1 23 Nov 04:50:34 04:51:28 11° 234° (SW) 04:52:21 .
XW-2D 23 Nov 05:21:57 05:22:59 11° 93° (E) 05:24:00 145.860 - 145.880
DOVE 4 23 Nov 05:29:28 05:34:33 80° 283° (WNW) 05:39:20 437.250
SO-50 23 Nov 05:30:49 05:33:22 14° 50° (NE) 05:35:57 436.795
XW-2B 23 Nov 05:35:32 05:38:00 16° 95° (E) 05:40:26 145.730 - 145.750
NUDT-PHONESAT 23 Nov 05:41:25 05:43:01 12° 94° (E) 05:44:37 437.300
AO-7 23 Nov 05:52:20 05:57:49 20° 303° (WNW) 06:03:20 .
CUTE-I 23 Nov 05:54:30 05:58:59 27° 97° (E) 06:03:25 437.470
XW-2C 23 Nov 06:00:19 06:03:52 36° 98° (E) 06:07:24 145.795 - 145.815
KKS-1 23 Nov 06:00:37 06:03:29 17° 265° (W) 06:06:21 437.445
LilacSat-2 23 Nov 06:05:01 06:08:44 47° 100° (E) 06:12:26 437.200
XW-2F 23 Nov 06:08:48 06:12:27 44° 99° (E) 06:16:04 145.980 - 146.000
STARS 23 Nov 06:17:19 06:21:05 27° 263° (W) 06:24:51 437.465
STRAND 1 23 Nov 06:29:07 06:33:40 33° 71° (ENE) 06:38:14 437.568
YUBILEINY 23 Nov 06:32:35 06:40:50 46° 282° (WNW) 06:49:12 435.215
KAITUO 1B 23 Nov 06:32:38 06:36:23 73° 101° (E) 06:40:09 145.475/437.950
CUBEBUG 2 23 Nov 06:39:58 06:41:25 12° 93° (E) 06:42:52 437.445
XW-2D 23 Nov 06:53:44 06:57:13 36° 286° (WNW) 07:00:43 145.860 - 145.880
CUTE 1.7 + AOD 2 23 Nov 06:54:05 06:58:01 35° 98° (E) 07:01:56 437.475
XW-2B 23 Nov 07:08:59 07:12:05 24° 288° (WNW) 07:15:11 145.730 - 145.750
SO-50 23 Nov 07:09:34 07:14:09 57° 245° (WSW) 07:18:46 436.795
FO-29 23 Nov 07:13:19 07:18:42 27° 64° (ENE) 07:24:33 435.910
NUDT-PHONESAT 23 Nov 07:13:37 07:16:53 30° 286° (WNW) 07:20:08 437.300
HO-68 23 Nov 07:19:55 07:27:04 68° 103° (ESE) 07:34:09 435.675
SEEDS 23 Nov 07:19:56 07:23:58 43° 99° (E) 07:28:00 437.485
AAUSAT CUBESAT 2 23 Nov 07:20:44 07:23:27 17° 94° (E) 07:26:08 437.432
UWE-3 23 Nov 07:30:04 07:33:35 27° 97° (E) 07:37:07 435.000/436.395/437.385
CUTE-I 23 Nov 07:34:18 07:38:55 30° 290° (WNW) 07:43:30 437.470
XW-2C 23 Nov 07:36:23 07:37:39 11° 291° (WNW) 07:38:54 145.795 - 145.815
FALCONSAT 3 23 Nov 07:53:09 07:56:23 30° 153° (SSE) 07:59:37 435.103
XW-2A 23 Nov 07:59:08 08:02:28 63° 101° (ESE) 08:05:48 145.665 - 145.685
AO-73 23 Nov 08:04:31 08:08:12 30° 98° (E) 08:11:54 145.935
STRAND 1 23 Nov 08:08:48 08:12:49 23° 264° (W) 08:16:50 437.568
CUBEBUG 2 23 Nov 08:14:19 08:18:10 39° 286° (WNW) 08:22:01 437.445
UNISAT 6 23 Nov 08:16:57 08:18:24 11° 67° (ENE) 08:19:51 437.425
Oscar 11 23 Nov 08:18:19 08:22:06 29° 97° (E) 08:25:54 .
TIGRISAT 23 Nov 08:20:39 08:22:05 11° 67° (ENE) 08:23:30 435.000
CUTE 1.7 + AOD 2 23 Nov 08:31:03 08:33:29 15° 291° (WNW) 08:35:55 437.475
ZACube-1 23 Nov 08:50:47 08:54:51 56° 284° (WNW) 08:58:57 437.345
AAUSAT CUBESAT 2 23 Nov 08:55:15 08:58:52 29° 287° (WNW) 09:02:28 437.432
FO-29 23 Nov 08:57:02 09:03:13 48° 263° (W) 09:10:12 435.910
SEEDS 23 Nov 08:57:27 08:59:13 12° 292° (WNW) 09:00:59 437.485
DELFI C3 23 Nov 09:04:09 09:06:49 17° 95° (E) 09:09:28 145.870
UWE-3 23 Nov 09:07:01 09:09:49 18° 290° (WNW) 09:12:37 435.000/436.395/437.385
HO-68 23 Nov 09:09:15 09:14:04 20° 299° (WNW) 09:18:52 435.675
PCSat 23 Nov 09:25:09 09:30:31 62° 63° (ENE) 09:35:50 145.827
FALCONSAT 3 23 Nov 09:31:39 09:35:19 77° 346° (NNW) 09:39:00 435.103
EO-88 23 Nov 09:32:26 09:34:50 17° 95° (E) 09:37:13 145.990 - 145.960
Max Valier Satellite 23 Nov 09:38:58 09:42:16 31° 98° (E) 09:45:33 145.860
AO-73 23 Nov 09:41:35 09:44:09 16° 290° (WNW) 09:46:45 145.935
UNISAT 6 23 Nov 09:50:08 09:54:37 54° 260° (W) 09:59:01 437.425
TIGRISAT 23 Nov 09:53:48 09:58:16 54° 260° (W) 10:02:40 435.000
Oscar 11 23 Nov 09:55:01 09:57:59 18° 290° (WNW) 10:00:56 .
PRISM 23 Nov 10:04:34 10:08:39 69° 75° (ENE) 10:12:45 437.425
BEESAT 3 23 Nov 10:27:44 10:29:11 12° 50° (NE) 10:30:38 437.485
DELFI C3 23 Nov 10:38:12 10:41:29 25° 288° (WNW) 10:44:46 145.870
EO-79 23 Nov 10:44:52 10:47:42 18° 69° (ENE) 10:50:31 145.935-145.965
NANOSAT C BR1 23 Nov 10:46:40 10:49:15 16° 69° (ENE) 10:51:51 145.865
AIST 2D 23 Nov 10:49:10 10:52:33 65° 78° (ENE) 10:55:59 435.315
POLYITAN 1 23 Nov 11:00:05 11:03:38 27° 72° (ENE) 11:07:10 437.675
EO-88 23 Nov 11:05:32 11:08:21 21° 288° (WNW) 11:11:10 145.990 - 145.960
PCSat 23 Nov 11:10:52 11:13:17 13° 257° (WSW) 11:15:41 145.827
FALCONSAT 3 23 Nov 11:11:01 11:14:36 51° 2° (N) 11:18:12 435.103
Max Valier Satellite 23 Nov 11:14:18 11:15:44 12° 291° (WNW) 11:17:09 145.860
LO-87 23 Nov 11:21:15 11:24:41 52° 100° (E) 11:28:06 145.935 - 145.965
QB50P2 23 Nov 11:22:54 11:27:04 59° 75° (ENE) 11:31:13 145.880/145.840
ESTCUBE 1 23 Nov 11:28:31 11:32:51 44° 99° (E) 11:37:09 437.505/2401.250
BEESAT 2 23 Nov 11:43:47 11:46:58 22° 55° (NE) 11:50:07 435.950
BEESAT 3 23 Nov 12:03:12 12:06:58 47° 246° (WSW) 12:10:38 437.485
DUCHIFAT 1 23 Nov 12:08:25 12:12:32 54° 260° (W) 12:16:39 145.980
SPROUT 23 Nov 12:15:54 12:19:43 32° 98° (E) 12:23:29 437.525
EO-79 23 Nov 12:19:29 12:23:11 29° 262° (W) 12:26:53 145.935-145.965
NANOSAT C BR1 23 Nov 12:20:53 12:24:39 32° 262° (W) 12:28:26 145.865
AO-85 23 Nov 12:25:42 12:29:54 30° 57° (ENE) 12:34:20 145.980
Gurwin Techsat 1B 23 Nov 12:29:03 12:32:57 21° 67° (ENE) 12:36:51 435.225
